When you browse on this site, cookies collect data to enhance your experience and personalize the content and advertising you see.
Visit our Privacy Policy to learn more. By continuing to use the site, you agree to this use of cookies and data.
  • In Czech Republic
  • List of Countries
  • For 7 days
  • Water Temperature
  • Satellite Maps
  • Weather Map
  • Weather Widgets
  • user-avatar
    Login

    Hourly Weather Luzhki

    Today, 22 February, Friday

    Time Temperature Precipitation Wind Pressure Humidity
    00:00 -14°C° 0.1 mm 6 mps 742 mmHg 80%
    01:00 -14°C° 0.1 mm 7 mps 742 mmHg 80%
    02:00 -14°C° 0.1 mm 7 mps 743 mmHg 81%
    03:00 -14°C° 0.1 mm 7 mps 743 mmHg 81%
    04:00 -14°C° 0.1 mm 7 mps 744 mmHg 81%
    05:00 -14°C° 0.1 mm 7 mps 744 mmHg 81%
    06:00 -14°C° 0.1 mm 7 mps 745 mmHg 80%
    07:00 -14°C° 0.1 mm 7 mps 746 mmHg 79%
    08:00 -14°C° 0.1 mm 7 mps 746 mmHg 78%
    09:00 -15°C° 0.1 mm 8 mps 747 mmHg 76%
    10:00 -15°C° 0.1 mm 8 mps 748 mmHg 75%
    11:00 -15°C° 0.1 mm 8 mps 749 mmHg 73%
    12:00 -13°C° 0 mm 8 mps 749 mmHg 72%
    13:00 -13°C° 0 mm 8 mps 750 mmHg 72%
    14:00 -12°C° 0 mm 7 mps 751 mmHg 71%
    15:00 -12°C° 0 mm 7 mps 751 mmHg 72%
    16:00 -12°C° 0 mm 7 mps 752 mmHg 74%
    17:00 -12°C° 0 mm 6 mps 753 mmHg 75%
    18:00 -12°C° 0 mm 6 mps 754 mmHg 76%
    19:00 -12°C° 0 mm 6 mps 755 mmHg 77%
    20:00 -12°C° 0 mm 6 mps 755 mmHg 78%
    21:00 -12°C° 0 mm 5 mps 756 mmHg 81%
    22:00 -13°C° 0 mm 5 mps 757 mmHg 83%
    23:00 -13°C° 0 mm 5 mps 757 mmHg 86%

    Tomorrow, 23 February, Saturday

    Time Temperature Precipitation Wind Pressure Humidity
    00:00 -14°C° 0 mm 4 mps 758 mmHg 88%
    01:00 -15°C° 0 mm 4 mps 758 mmHg 90%
    02:00 -14°C° 0 mm 3 mps 759 mmHg 92%
    03:00 -15°C° 0 mm 3 mps 759 mmHg 92%
    04:00 -15°C° 0 mm 3 mps 759 mmHg 92%
    05:00 -15°C° 0 mm 2 mps 759 mmHg 92%
    06:00 -14°C° 0 mm 2 mps 759 mmHg 88%
    07:00 -14°C° 0 mm 2 mps 759 mmHg 85%
    08:00 -13°C° 0 mm 2 mps 759 mmHg 82%
    09:00 -12°C° 0 mm 2 mps 759 mmHg 79%
    10:00 -9°C° 0 mm 2 mps 759 mmHg 76%
    11:00 -8°C° 0 mm 2 mps 759 mmHg 73%
    12:00 -8°C° 0 mm 3 mps 758 mmHg 71%
    13:00 -8°C° 0 mm 4 mps 757 mmHg 69%
    14:00 -7°C° 0 mm 4 mps 757 mmHg 68%
    15:00 -8°C° 0.2 mm 5 mps 756 mmHg 74%
    16:00 -8°C° 0.2 mm 5 mps 755 mmHg 80%
    17:00 -10°C° 0.2 mm 6 mps 754 mmHg 87%
    18:00 -9°C° 0.7 mm 6 mps 754 mmHg 88%
    19:00 -9°C° 0.7 mm 6 mps 753 mmHg 90%
    20:00 -8°C° 0.7 mm 5 mps 752 mmHg 91%
    21:00 -8°C° 0.6 mm 5 mps 752 mmHg 92%
    22:00 -7°C° 0.6 mm 5 mps 751 mmHg 92%
    23:00 -7°C° 0.6 mm 4 mps 751 mmHg 92%

    Day after tomorrow, 24 February, Sunday

    Time Temperature Precipitation Wind Pressure Humidity
    00:00 -5°C° 0.2 mm 4 mps 751 mmHg 92%
    01:00 -4°C° 0.2 mm 4 mps 751 mmHg 92%
    02:00 -3°C° 0.2 mm 4 mps 750 mmHg 91%
    03:00 -2°C° 0.1 mm 4 mps 750 mmHg 92%
    04:00 -2°C° 0.1 mm 4 mps 750 mmHg 92%
    05:00 0°C° 0.1 mm 3 mps 750 mmHg 93%
    06:00 0°C° 0 mm 3 mps 750 mmHg 93%
    07:00 0°C° 0 mm 3 mps 751 mmHg 94%
    08:00 0°C° 0 mm 3 mps 751 mmHg 94%
    09:00 0°C° 0 mm 3 mps 751 mmHg 95%
    10:00 0°C° 0 mm 3 mps 751 mmHg 95%
    11:00 0°C° 0 mm 3 mps 751 mmHg 96%
    12:00 0°C° 0 mm 3 mps 751 mmHg 96%
    13:00 +1°C° 0 mm 3 mps 751 mmHg 97%
    14:00 +1°C° 0 mm 3 mps 751 mmHg 97%
    15:00 +1°C° 0 mm 3 mps 751 mmHg 96%
    16:00 0°C° 0 mm 3 mps 751 mmHg 96%
    17:00 0°C° 0 mm 3 mps 751 mmHg 95%
    18:00 0°C° 0 mm 3 mps 751 mmHg 95%
    19:00 0°C° 0 mm 3 mps 751 mmHg 95%
    20:00 0°C° 0 mm 3 mps 751 mmHg 96%
    21:00 0°C° 0 mm 3 mps 750 mmHg 95%
    22:00 0°C° 0 mm 3 mps 750 mmHg 95%
    23:00 0°C° 0 mm 4 mps 749 mmHg 95%

    25 February, Monday

    Time Temperature Precipitation Wind Pressure Humidity
    00:00 0°C° 0.1 mm 4 mps 749 mmHg 95%
    01:00 0°C° 0.1 mm 4 mps 748 mmHg 95%
    02:00 0°C° 0.1 mm 4 mps 748 mmHg 94%
    03:00 0°C° 0 mm 4 mps 748 mmHg 94%
    04:00 0°C° 0 mm 5 mps 747 mmHg 93%
    05:00 0°C° 0 mm 5 mps 747 mmHg 92%
    06:00 0°C° 0.1 mm 5 mps 746 mmHg 90%
    07:00 0°C° 0.1 mm 5 mps 746 mmHg 89%
    08:00 0°C° 0.1 mm 5 mps 746 mmHg 87%
    09:00 -1°C° 0 mm 5 mps 746 mmHg 85%
    10:00 -2°C° 0 mm 6 mps 746 mmHg 84%
    11:00 -2°C° 0 mm 6 mps 746 mmHg 83%
    12:00 -2°C° 0 mm 6 mps 746 mmHg 82%
    13:00 -2°C° 0 mm 6 mps 746 mmHg 82%
    14:00 -2°C° 0 mm 6 mps 746 mmHg 82%
    15:00 -1°C° 0 mm 5 mps 746 mmHg 81%
    16:00 -2°C° 0 mm 5 mps 746 mmHg 80%
    17:00 -2°C° 0 mm 5 mps 746 mmHg 80%
    18:00 -4°C° 0 mm 5 mps 746 mmHg 81%
    19:00 -4°C° 0 mm 5 mps 746 mmHg 82%
    20:00 -4°C° 0 mm 5 mps 745 mmHg 84%
    21:00 -4°C° 0 mm 5 mps 745 mmHg 84%
    22:00 -4°C° 0 mm 5 mps 744 mmHg 85%
    23:00 -2°C° 0 mm 4 mps 744 mmHg 86%

    26 February, Tuesday

    Time Temperature Precipitation Wind Pressure Humidity
    00:00 -2°C° 0 mm 4 mps 743 mmHg 87%
    01:00 -3°C° 0 mm 4 mps 743 mmHg 87%
    02:00 -3°C° 0 mm 4 mps 742 mmHg 87%
    03:00 -3°C° 0 mm 4 mps 741 mmHg 88%
    04:00 -3°C° 0 mm 4 mps 741 mmHg 89%
    05:00 -1°C° 0 mm 3 mps 740 mmHg 89%
    06:00 -1°C° 0.2 mm 3 mps 739 mmHg 91%
    07:00 -1°C° 0.2 mm 3 mps 738 mmHg 92%
    08:00 -1°C° 0.2 mm 2 mps 737 mmHg 94%
    09:00 -1°C° 0.4 mm 2 mps 736 mmHg 94%
    10:00 -1°C° 0.4 mm 2 mps 736 mmHg 94%
    11:00 -1°C° 0.4 mm 2 mps 735 mmHg 93%
    12:00 -1°C° 0.1 mm 2 mps 735 mmHg 91%
    13:00 -1°C° 0.1 mm 3 mps 735 mmHg 89%
    14:00 -1°C° 0.1 mm 3 mps 735 mmHg 87%
    15:00 -1°C° 0.1 mm 3 mps 736 mmHg 86%
    16:00 -2°C° 0.1 mm 4 mps 736 mmHg 85%
    17:00 -3°C° 0.1 mm 4 mps 737 mmHg 84%
    18:00 -3°C° 0 mm 4 mps 738 mmHg 84%
    19:00 -3°C° 0 mm 4 mps 738 mmHg 84%
    20:00 -4°C° 0 mm 4 mps 739 mmHg 84%
    21:00 -4°C° 0 mm 4 mps 739 mmHg 84%
    22:00 -4°C° 0 mm 4 mps 740 mmHg 84%
    23:00 -4°C° 0 mm 4 mps 740 mmHg 85%

    27 February, Wednesday

    Time Temperature Precipitation Wind Pressure Humidity
    00:00 -4°C° 0.1 mm 4 mps 740 mmHg 85%
    01:00 -4°C° 0.1 mm 4 mps 740 mmHg 86%
    02:00 -4°C° 0.1 mm 4 mps 740 mmHg 87%
    03:00 -5°C° 0 mm 4 mps 740 mmHg 84%
    04:00 -7°C° 0 mm 5 mps 741 mmHg 82%
    05:00 -8°C° 0 mm 5 mps 741 mmHg 80%
    06:00 -10°C° 0 mm 5 mps 741 mmHg 80%
    07:00 -11°C° 0 mm 5 mps 742 mmHg 80%
    08:00 -12°C° 0 mm 5 mps 742 mmHg 80%
    09:00 -11°C° 0 mm 4 mps 742 mmHg 78%
    10:00 -9°C° 0 mm 3 mps 742 mmHg 77%
    11:00 -8°C° 0 mm 3 mps 742 mmHg 75%
    12:00 -8°C° 0 mm 3 mps 742 mmHg 74%
    13:00 -6°C° 0 mm 2 mps 742 mmHg 72%
    14:00 -5°C° 0 mm 2 mps 741 mmHg 71%
    15:00 -5°C° 0 mm 2 mps 741 mmHg 74%
    16:00 -5°C° 0 mm 2 mps 740 mmHg 77%
    17:00 -5°C° 0 mm 2 mps 739 mmHg 80%
    18:00 -5°C° 0 mm 3 mps 738 mmHg 82%
    19:00 -5°C° 0 mm 3 mps 737 mmHg 85%
    20:00 -5°C° 0 mm 4 mps 736 mmHg 88%
    21:00 -4°C° 0.1 mm 4 mps 735 mmHg 88%
    22:00 -3°C° 0.1 mm 4 mps 734 mmHg 89%
    23:00 -2°C° 0.1 mm 5 mps 733 mmHg 90%
    Show more